Weather in Gritsev

Ukraine / Khmelnitsky District     49°58′24″N   27°13′39″E
temp.,
°C
wind,
m/s
gust,
m/s
humid.,
%
clouds,
%
prec.,
mm/h
press.,
hPa
HPBL,
m
12 april, mon
mon1200:00+6sse48601 0.0 1026132
03:00+5se35631 0.0 102676
06:00+4se35661 0.0 102575
09:00+8se35540 0.0 1024218
12:00+13sse34390 0.0 10231066
15:00+16se33344 0.0 10211318
18:00+16se23350 0.0 10201314
21:00+11se33520 0.0 102122
13 april, tue
tue1300:00+9sse22590 0.0 102120
03:00+7sse22651 0.0 102110
06:00+7sse11660 0.0 102010
09:00+11ese22572 0.0 1020191
12:00+15e114367 0.0 1019786
15:00+17ene2233100 0.0 10171620
18:00+17ene3441100 0.0 1016920
21:00+11se3579100 0.0 1017137
14 april, wed
wed1400:00+10se2286100 0.1 101687
03:00+10w1293100 1.6 1014107
06:00+9nnw1297100 2.7 1013205
09:00+9ssw1296100 4.8 1013276
12:00+8sse3694100 0.7 1013502
15:00+8se3592100 1.1 1013479
18:00+8w0294100 0.2 1013276
21:00+6wsw3495100 0.9 1014305
15 april, thu
thu1500:00+5wsw3494100 0.6 1014295
03:00+5w3493100 0.8 1014268
06:00+4w2393100 0.3 1015235
09:00+4w2395100 0.5 1015231
12:00+4w2295100 0.0 1016290
15:00+4w3496100 0.2 1016273
18:00+4wnw3594100 1.0 1016307
21:00+3wnw4596100 2.1 1017315
16 april, fri
fri1600:00+3wnw3597100 0.4 1017270
03:00+2wnw4697100 1.0 1016264
06:00+2wnw4697100 0.2 1016252
09:00+3wnw4797100 0.9 1016265
12:00+3wnw5796100 0.1 1017299
15:00+6nw6890100 0.1 1017458
18:00+7wnw71290100 0.0 1017471
21:00+5nw61397100 0.1 1018377